EST,Max TemperatureF,Mean TemperatureF,Min TemperatureF,Max Dew PointF,MeanDew PointF,Min DewpointF,Max Humidity, Mean Humidity, Min Humidity, Max Sea Level PressureIn, Mean Sea Level PressureIn, Min Sea Level PressureIn, Max VisibilityMiles, Mean VisibilityMiles, Min VisibilityMiles, Max Wind SpeedMPH, Mean Wind SpeedMPH, Max Gust SpeedMPH,PrecipitationIn, CloudCover, Events, WindDirDegrees
2013-2-1,20,14,8,10,2,-3,76,62,50,30.02,29.74,29.44,10,9,2,17,9,23,0.00,5,Snow,236
2013-2-2,19,11,3,13,4,-5,88,70,50,30.10,30.03,29.97,10,8,2,15,5,22,0.00,4,Snow,242
2013-2-3,26,16,5,14,6,-2,86,67,32,29.97,29.84,29.66,10,9,1,5,0,,0.00,4,Snow,65
2013-2-4,18,12,5,11,1,-13,85,59,41,29.83,29.70,29.64,10,9,1,23,7,31,0.00,4,Snow,244
2013-2-5,18,7,-4,2,-9,-15,71,47,26,29.96,29.90,29.84,10,10,7,5,1,,0.00,2,,231
2013-2-6,26,16,6,20,3,-13,79,59,36,30.27,29.98,29.83,10,8,1,15,3,25,0.00,6,Snow,258
2013-2-7,13,6,-1,-3,-12,-21,63,43,21,30.49,30.41,30.28,10,10,10,8,3,,0.00,3,,235
2013-2-8,22,16,9,18,8,-8,84,73,42,30.40,30.16,29.90,10,4,1,16,3,28,0.00,8,Snow,65
2013-2-9,14,10,6,9,-1,-6,77,62,52,30.25,30.04,29.87,10,6,2,23,14,34,0.00,4,Snow,234
2013-2-10,26,11,-4,2,-6,-11,74,48,21,30.39,30.32,30.25,10,10,10,6,2,,0.00,0,,175
2013-2-11,31,18,5,29,13,-2,92,77,42,30.25,29.94,29.61,10,7,0,13,3,17,0.00,7,Snow,203
2013-2-12,,,,,,,,,,,,,,,,,,,0.00,,,-1
2013-2-13,33,30,27,23,21,18,80,66,57,29.77,29.73,29.72,10,10,10,9,4,,0.00,8,,314
2013-2-14,32,29,26,22,18,14,79,63,49,29.93,29.84,29.71,10,10,10,9,2,,0.00,7,Snow,282
2013-2-15,42,33,24,25,20,16,84,60,41,29.92,29.87,29.81,10,10,1,16,4,28,0.00,7,Snow,204
2013-2-16,31,24,15,17,9,1,70,54,43,29.94,29.91,29.83,10,10,7,13,6,18,0.00,,Snow,311
2013-2-17,15,11,7,4,1,-2,74,63,54,29.82,29.64,29.52,10,8,2,23,11,32,0.00,,Snow,231
2013-2-18,19,11,3,-1,-8,-14,70,48,22,30.08,29.93,29.69,10,8,4,20,12,28,0.00,,,230
2013-2-19,38,20,3,30,5,-10,92,53,19,30.10,29.87,29.55,10,9,1,12,2,21,0.00,,Snow,180
2013-2-20,32,26,19,31,18,12,94,74,59,29.66,29.57,29.52,10,6,0,21,7,28,0.00,,Snow,269
2013-2-21,22,14,7,16,7,-2,79,70,63,30.27,29.93,29.66,10,6,2,23,12,38,0.00,,Snow,230
2013-2-22,32,26,20,18,17,15,82,68,52,30.39,30.30,30.24,10,10,7,8,3,,0.00,,,329
2013-2-23,31,29,27,28,24,17,92,77,61,30.24,30.07,29.91,10,6,0,12,5,16,0.00,,Snow,167
2013-2-24,33,31,29,31,28,26,93,89,83,29.90,29.82,29.75,10,4,1,9,1,,0.00,,Rain-Snow,310
2013-2-25,35,32,30,28,26,24,88,77,63,30.21,30.07,29.90,10,10,4,9,5,,0.00,,Snow,327
2013-2-26,39,34,28,28,26,23,89,73,54,30.30,30.24,30.14,10,10,7,8,1,,0.00,,Snow,151
2013-2-27,38,34,30,31,25,21,92,73,62,30.13,29.87,29.64,10,8,0,17,6,23,0.00,,Rain-Snow,94
2013-2-28,40,35,30,31,28,25,90,75,60,29.64,29.57,29.54,10,10,5,9,3,,0.00,,Rain-Snow,340